This is the latest recevied weather packets stored in our database for station/object DL1GHN-6. If no packets are shown the sender has not sent any weather packets the latest 10 day(s).
| Time | Temp. | Humidity | Pressure | Rain* | Wind** | Luminosity | Snow |
|---|---|---|---|---|---|---|---|
| 1777466433 | 23.89° C | 29% | 1018.2 hPa | 0 mm | - | 759 W/m² | - |
| 1777466132 | 23.33° C | 32% | 1018.3 hPa | 0 mm | - | 761 W/m² | - |
| 1777465832 | 23.33° C | 31% | 1018.3 hPa | 0 mm | - | 768 W/m² | - |
| 1777465533 | 23.89° C | 31% | 1018.4 hPa | 0 mm | - | 777 W/m² | - |
| 1777465232 | 23.33° C | 29% | 1018.3 hPa | 0 mm | - | 775 W/m² | - |
| 1777464933 | 23.33° C | 27% | 1018.3 hPa | 0 mm | - | 784 W/m² | - |
| 1777464632 | 23.33° C | 32% | 1018.5 hPa | 0 mm | - | 784 W/m² | - |
| 1777464332 | 23.33° C | 29% | 1018.3 hPa | 0 mm | - | 786 W/m² | - |
| 1777464032 | 23.33° C | 29% | 1018.4 hPa | 0 mm | - | 786 W/m² | - |
| 1777463732 | 23.33° C | 30% | 1018.4 hPa | 0 mm | - | 789 W/m² | - |
| 1777463433 | 23.33° C | 37% | 1018.4 hPa | 0 mm | - | 793 W/m² | - |
| 1777463133 | 23.33° C | 31% | 1018.6 hPa | 0 mm | - | 793 W/m² | - |
| 1777462832 | 22.78° C | 36% | 1018.4 hPa | 0 mm | - | 798 W/m² | - |
| 1777462533 | 22.22° C | 43% | 1018.7 hPa | 0 mm | - | 796 W/m² | - |
| 1777462233 | 22.22° C | 41% | 1018.6 hPa | 0 mm | - | 798 W/m² | - |
| 1777461933 | 22.78° C | 40% | 1018.7 hPa | 0 mm | - | 796 W/m² | - |
| 1777461634 | 22.22° C | 39% | 1018.7 hPa | 0 mm | - | 803 W/m² | - |
| 1777461334 | 22.22° C | 40% | 1018.7 hPa | 0 mm | - | 786 W/m² | - |
| 1777461033 | 21.67° C | 43% | 1018.7 hPa | 0 mm | - | 796 W/m² | - |
| 1777460733 | 21.67° C | 42% | 1018.9 hPa | 0 mm | - | 793 W/m² | - |
| 1777460432 | 21.11° C | 41% | 1018.9 hPa | 0 mm | - | 796 W/m² | - |
| 1777460132 | 21.11° C | 41% | 1018.9 hPa | 0 mm | - | 791 W/m² | - |
| 1777459832 | 21.11° C | 41% | 1018.9 hPa | 0 mm | - | 789 W/m² | - |
| 1777459532 | 21.11° C | 43% | 1019 hPa | 0 mm | - | 788 W/m² | - |
| 1777459233 | 20.56° C | 45% | 1019.1 hPa | 0 mm | - | 784 W/m² | - |
* Rain latest hour (hover to see other rain measurements)
** Current wind speed in m/s (hover to see current wind gust speed)